www.pogodaiklimat.ru

Погода и климат >> Архив погоды >> Россия >> Якутия >> Якутск


АРХИВ ПОГОДЫ в Якутске

Время (UTC), дата Ветер
(напр.,м/с)
 
Видим.   Явления Облачность Т
(С)
Тd
(С)
f
(%)
Тe
(С)
Тes
(С)
Комфортность P
(гПа)
Po
(гПа)
Тmin
(С)
Tmax
(С)
R
(мм)
R24
(мм)
S
(см)
12 13.05 СВ 3 50 км 3/0
[Ci fib]
+13.0 -4.0 30 +12 +12 тепло 1010.7 998.6 +16.7
15 13.05 С 1 20 км 8/0
[Ac trans Ci fib]
+5.1 -1.5 62 +4 +4 по сезону 1011.1 998.7
18 13.05 штиль 0 50 км 6/0
[Ci fib]
+0.4 -3.3 76 -1 -1 по сезону 1011.9 999.3
21 13.05 С 1 50 км 10/0
[Ci fib]
+7.3 -2.9 48 +7 +8 тепло 1011.8 999.5
00 14.05 В 1 50 км 10/0
[Ci fib]
+14.5 -1.9 32 +15 +22 тепло 1011.3 999.3 -0.7
03 14.05 В 5
{11}
50 км 10/0
[Ci fib]
+19.1 -3.8 21 +19 +24 тепло 1009.7 997.9
06 14.05 ЮВ 5-12
{12}
50 км 10/0
[Cs]
+19.4 -4.1 20 +19 +23 тепло 1008.1 996.3
09 14.05 ЮЗ 6
{12}
50 км 10/3 1000 м
[Sc Ac trans Cs]
+15.7 +1.0 37 +14 +15 тепло 1008.3 996.4
12 14.05 Ю 3
{10}
50 км 10/4 1000 м
[Sc Ac trans Cs]
+12.5 +6.0 65 +11 +11 тепло 1009.4 997.4 +19.8
15 14.05 ЮВ 1 20 км слаб. дождь 10/5 1000 м
[Sc Ac trans]
+9.3 +7.1 86 +9 +9 тепло 1009.2 997.0
18 14.05 В 2 20 км {ливн. осадки, дождь} 10/5 600 м
[Cb cap Ac trans]
+9.7 +6.9 83 +8 +8 тепло 1008.2 996.0
21 14.05 В 2 50 км 10/4 1000 м
[Cb cap Ac trans Ci fib]
+9.2 +5.4 77 +8 +8 тепло 1007.3 995.1
00 15.05 В 1 20 км слаб. дождь 10/6 1000 м
[Sc Ac trans]
+10.8 +6.7 76 +11 +12 тепло 1006.5 994.4 +8.3 0.8
03 15.05 С 2 50 км {дождь} 10/6 1000 м
[Sc Ac trans Ci fib]
+14.7 +7.7 63 +14 +17 тепло 1005.6 993.7
06 15.05 С 3 50 км {дождь} 10/4 1000 м
[Sc Ac trans Ci fib]
+18.3 +6.3 45 +19 +21 тепло 1004.1 992.4
09 15.05 В 3 50 км 10/6 600 м
[Cb cap Ac trans Ci fib]
+17.7 +9.3 58 +18 +18 тепло 1003.7 991.9
12 15.05 С 2 50 км 10/3 1000 м
[Sc Ac trans Ci fib]
+14.5 +9.2 70 +14 +14 тепло 1004.2 992.3 +18.9 0.0
15 15.05 СВ 1 50 км {ливн. осадки} 10/4 600 м
[Cb cap Ac trans Ci fib]
+12.2 +8.9 80 +12 +12 тепло 1004.7 992.7
18 15.05 С 1 50 км {ливн. осадки} 8/3 1000 м
[Sc Ac trans Ci fib]
+9.9 +7.1 83 +9 +9 тепло 1004.6 992.5
21 15.05 СВ 2 50 км 8/3 1000 м
[Sc Ac trans Ci fib]
+9.7 +7.1 84 +8 +9 тепло 1005.0 992.9
00 16.05 СВ 1 50 км 8/3 600 м
[Cu med, cong Ac trans Ci fib]
+15.7 +10.0 69 +16 +20 тепло 1004.6 992.8 +7.6 0.0
03 16.05 В 2 50 км 6/1 600 м
[Cu med, cong Ac trans Ci fib]
+21.1 +8.5 44 +22 +30 комфорт 1003.5 991.9
06 16.05 В 5 50 км 8/5 600 м
[Cu med, cong Ci fib]
+23.2 +5.1 31 +23 +25 комфорт 1002.0 990.5
09 16.05 В 5 50 км 6/3 600 м
[Cu med, cong Ci fib]
+22.8 +3.2 28 +23 +24 комфорт 1001.5 989.9
12 16.05 ЮВ 3 50 км 10/0
[Cs]
+18.9 +1.8 32 +19 +19 тепло 1002.7 991.0 +23.6
15 16.05 В 3 50 км 8/0
[Ci fib]
+14.2 +0.5 39 +14 +14 тепло 1004.1 992.2
18 16.05 В 2 20 км слаб. дождь 10/4 600 м
[Sc Ac trans Ci fib]
+11.4 +3.4 58 +11 +11 тепло 1004.7 992.7
21 16.05 В 3 50 км {дождь} 10/8 960 м
[Sc Ac trans Ci fib]
+9.4 +4.8 73 +7 +7 тепло 1005.3 993.2
00 17.05 В 4 50 км {дождь} 10/8 900 м
[Sc Ac trans]
+10.4 +4.4 66 +8 +8 по сезону 1005.4 993.3 +9.3 0.3
03 17.05 ЮВ 3 50 км 10/8 1140 м
[Sc Ac trans]
+11.9 +5.3 64 +10 +11 по сезону 1004.7 992.7
06 17.05 В 4 50 км 10/6 1000 м
[Sc Ac trans Ci fib]
+15.7 +4.6 48 +15 +16 тепло 1002.7 990.9
09 17.05 В 3 50 км 10/8 1080 м
[Sc Ac trans]
+16.0 +5.6 50 +16 +16 тепло 1002.7 990.9
12 17.05 С 1 50 км 10/6 1000 м
[Sc Ac trans]
+14.0 +7.5 65 +14 +14 тепло 1002.5 990.6 +16.6
15 17.05 ЮВ 3 20 км 10/4 1000 м
[Sc Ac trans]
+13.2 +6.5 64 +12 +12 тепло 1002.7 990.8
18 17.05 ЮВ 2 50 км 10/3 1000 м
[Sc Ac trans Ci fib]
+10.4 +4.7 68 +9 +9 тепло 1004.0 991.9
21 17.05 В 2 50 км 10/0
[Ac trans Ci fib]
+8.6 +3.9 72 +7 +8 тепло 1004.6 992.4
00 18.05 В 3 50 км 10/0
[Ci fib]
+12.4 +5.0 61 +11 +16 тепло 1003.7 991.7 +8.2
03 18.05 В 3 50 км 10/3 600 м
[Cu hum Ac trans Ci fib]
+16.8 +3.6 41 +17 +20 тепло 1002.5 990.7
06 18.05 В 3 50 км 10/5 600 м
[Cu hum Ac trans Cs]
+18.8 +3.1 35 +19 +21 тепло 1001.0 989.3
09 18.05 СВ 3 50 км 10/5 1000 м
[Sc Ac trans Ci fib]
+18.7 +2.3 33 +19 +20 тепло 1000.2 988.5
12 18.05 С 1 50 км 10/4 1000 м
[Sc Ac trans Ci fib]
+15.3 +3.7 46 +16 +16 тепло 1000.4 988.6 +19.5
15 18.05 С 3 20 км 10/6 1000 м
[Sc Ac trans Ci fib]
+12.6 +3.1 52 +11 +11 тепло 1001.2 989.3
18 18.05 С 3 20 км 10/5 1000 м
[Sc Ac trans Ci fib]
+8.3 +2.0 64 +6 +6 тепло 1002.5 990.4
21 18.05 СЗ 3 50 км слаб. дождь 10/8 1000 м
[Sc Ac trans]
+4.7 +1.8 81 +1 +1 прохладно 1004.6 992.2
00 19.05 СЗ 3 50 км в посл. час дождь 10/5 1000 м
[Sc Ac trans]
+5.6 +0.4 69 +3 +4 прохладно 1005.9 993.6 +4.2 0.0
03 19.05 З 5 50 км 10/0
[Ac trans Ci fib]
+10.0 -0.1 49 +7 +12 прохладно 1006.0 993.9
06 19.05 СЗ 6
{11}
50 км 4/0
[Ci fib]
+10.3 -5.1 33 +8 +11 прохладно 1006.8 994.7
09 19.05 СЗ 5
{12}
50 км 6/0
[Ci fib]
+9.7 -5.9 33 +7 +9 прохладно 1008.2 996.0
12 19.05 СЗ 3
{10}
50 км 3/0
[Ci fib]
+6.3 -8.4 34 +4 +4 прохладно 1010.3 998.0 +10.5
15 19.05 СЗ 3 50 км ясно +2.7 -8.8 42 -1 -1 холодно 1011.8 999.3
18 19.05 З 4 50 км ясно -0.0 -6.6 61 -5 -5 холодно 1012.3 999.6
21 19.05 СЗ 3 50 км ясно +0.8 -6.8 57 -3 -2 холодно 1013.2 1000.6
00 20.05 СЗ 3 50 км ясно +5.5 -8.6 35 +3 +10 прохладно 1013.3 1000.9 -0.6
03 20.05 СЗ 3 50 км 4/0
[Ci fib]
+9.2 -10.8 23 +8 +17 по сезону 1012.8 1000.6
06 20.05 СЗ 3 50 км 8/3 1000 м
[Cu med, cong Ci fib]
+10.8 -9.0 24 +10 +14 по сезону 1012.3 1000.1
09 20.05 СЗ 3
{12}
50 км 8/3 1000 м
[Cu med, cong Ci fib]
+10.8 -9.6 23 +10 +11 по сезону 1012.8 1000.6

 

Местоположение метеостанции Якутск (Якутия, Россия): широта 62.00 долгота 129.60 высота над уровнем моря 101 м.

В архиве по умолчанию представлена погода в Якутске за последнюю неделю. Архивные данные за месяц целиком и за предыдущие месяцы, начиная с января 2011 года, Вы можете получить, выбрав интересующий диапазон дат из раскрывающегося списка и нажав кнопку "Ввод!".


*Определитесь, кто Вы:
робот инопланетянин человек

Внимание! Время в таблицах - всемирное. Для получения местного времени необходимо прибавить поправку, которая равна 9 ч.

Смотрите также архив погоды в соседних городах и на ближайших метеорологических станциях:

Погода в Покровске (Якутия, Россия) (64 км)
Погода в Намцах (Якутия, Россия) (80 км)
Погода в Бердигестяхе (Якутия, Россия) (138 км)
Погода в Чурапче (Якутия, Россия) (157 км)
Погода в Батамае (Якутия, Россия) (169 км)
Погода в Тегюльте (Якутия, Россия) (172 км)
Погода в Амге (Якутия, Россия) (173 км)
Погода в Верхоянском Перевозе (Якутия, Россия) (191 км)
Погода в Ытык-Кюёле (Якутия, Россия) (207 км)
Погода в Сеген-Кюеле (Якутия, Россия) (225 км)

Пояснения к столбцам:

Ветер - указаны скорость ветра в м/с - средняя за 10 мин, порывы в срок и между сроками (в фигурных скобках) и направление, откуда дует ветер: С - северный, СВ - северо-восточный, В - восточный, ЮВ - юго-восточный, Ю - южный, ЮЗ - юго-западный, З - западный, СЗ - северо-западный.
Видимость - горизонтальная дальность видимости в метрах или километрах. При видимости от 1 до 10 км при отсутствии осадков обычно наблюдается дымка, при ухудшении видимости до 1 км и менее - туман. В сухую погоду видимость может ухудшаться дымом, пылью или мглою.
Явления - указаны атмосферные явления, наблюдавшиеся в срок или в последний час перед сроком; фигурными скобками обозначены явления, наблюдавшиеся между сроками (за 1-3 часа до срока); квадратными скобками обозначены град или гололедные отложения с указанием их диаметра в мм.
Облачность - указаны через наклонную черту общая и нижняя облачность в баллах и высота нижней границы облаков в метрах; квадратными скобками обозначены формы облаков: Ci - перистые, Cs - перисто-слоистые, Cc - перисто-кучевые, Ac - высококучевые, As - высокослоистые, Sc - слоисто-кучевые, Ns - слоисто-дождевые, Cu - кучевые, Cb - кучево-дождевые. Подробнее классификацию облаков см. в Атласе облаков (PDF).
T - Температура воздуха - температура, измеренная на высоте 2 м над землей.
Td - Температура точки росы - температура, при понижении до которой содержащийся в воздухе водяной пар достигнет насыщения.
f - Относительная влажность воздуха - влажноcть воздуха, измеренная на высоте 2 м над землей.
Te - Эффективная температура - температура, которую ощущает одетый по сезону человек в тени. Характеристика душности погоды. При расчете учитывается влияние влажности воздуха и скорости ветра на теплоощущения человека.
Tes - Эффективная температура на солнце - температура, которую ощущает человек, с поправкой на солнечный нагрев. Характеристика знойности погоды. Зависит от высоты солнца над горизонтом, облачности и скорости ветра. Ночью, в пасмурную погоду, а также при ветре 12 м/с и более поправка равна нулю.
P - Атмосферное давление - приведенное к уровню моря атмосферное давление.
Po - Атмосферное давление - измеренное на уровне метеостанции атмосферное давление.
Tmin - Минимальная температура - минимум температуры воздуха на высоте 2 м над землей.
Tmax - Максимальная температура - максимум температуры воздуха на высоте 2 м над землей.
R - Количество осадков - Количество выпавших осадков за период времени, мм. При наведении курсора мыши на число - период времени, за который выпало указанное количество осадков.
R24 - Количество осадков - Количество выпавших осадков за 24 часа, мм.
S - Снежный покров - Высота снежного покрова, см. При наведении курсора мыши на число - состояние снежного покрова и степень покрытия местности в баллах.